Location: Qazi Observatory
(41.6337°N, 88.1517°W)
Time: 14:58:47
(UTC-06:00)

Amateur Radio Satellites - All Passes

Search period start: 27 January 2015 14:28
Search period end: 28 January 2015 14:28
Location: Qazi Observatory, 41.6337°N, 88.1517°W

Satellite Date Start Highest point End Downlink Frequencies (MHz)
Time Altitude Azimuth
AO-7 27 Jan 14:31:05 14:39:13 59° 66° (ENE) 14:47:25 29.400- 29.500
SWISSCUBE 27 Jan 14:39:33 14:43:14 22° 294° (WNW) 14:46:48 437.505
JAS-2 27 Jan 14:51:20 14:55:48 27° 67° (ENE) 15:00:10 435.910
VERMONT LUNAR 27 Jan 14:54:15 14:56:15 14° 211° (SSW) 14:58:12 437.305
BEESAT 27 Jan 14:56:16 14:59:21 17° 296° (WNW) 15:02:17 436.000
Gurwin Techsat 1B 27 Jan 14:58:34 15:02:20 19° 270° (W) 15:05:56 435.225
ITUPSAT 1 27 Jan 14:58:55 15:01:56 16° 296° (WNW) 15:04:47 437.325
HORYU 2 27 Jan 14:59:19 15:03:37 42° 262° (W) 15:07:54 437.375
DANDE 27 Jan 15:07:42 15:14:45 64° 75° (ENE) 15:20:00 436.750
M-CUBED/EXP-1 PRIME 27 Jan 15:09:43 15:12:53 42° 104° (ESE) 15:16:06 437.505
O/OREOS (USA 219) 27 Jan 15:15:20 15:17:45 15° 100° (E) 15:20:23 437.305
MOZHAYETS 4 27 Jan 15:37:42 15:40:03 14° 89° (E) 15:42:36
RS-15 27 Jan 15:41:01 15:51:17 39° 251° (WSW) 16:01:39 29.354- 29.394
PHONESAT 2.4 27 Jan 15:41:37 15:43:15 12° 213° (SSW) 15:44:48 2401.200-2431.200
AUBIESAT-1 27 Jan 15:44:32 15:47:50 69° 290° (WNW) 15:51:12 437.475
STARS 27 Jan 15:46:52 15:50:46 29° 291° (WNW) 15:54:33 437.465
CUSAT 1 27 Jan 15:47:57 15:54:15 50° 268° (W) 15:58:57 437.405
KKS-1 27 Jan 15:49:14 15:52:32 20° 294° (WNW) 15:55:42 437.445
Cubesat XI-IV 27 Jan 16:01:12 16:04:36 18° 62° (ENE) 16:08:12 437.490
CUTE-I 27 Jan 16:20:45 16:25:01 26° 66° (ENE) 16:29:26 437.470
AO-7 27 Jan 16:25:09 16:32:29 32° 265° (W) 16:39:39 29.400- 29.500
JAS-2 27 Jan 16:35:39 16:40:52 38° 262° (W) 16:45:44 435.910
M-CUBED/EXP-1 PRIME 27 Jan 16:46:30 16:47:38 11° 299° (WNW) 16:48:36 437.505
O/OREOS (USA 219) 27 Jan 16:52:23 16:56:45 52° 296° (WNW) 17:01:13 437.305
DANDE 27 Jan 16:52:39 16:57:13 19° 280° (W) 17:00:52 436.750
MOZHAYETS 4 27 Jan 17:13:14 17:17:44 56° 286° (WNW) 17:22:11
CUBESAT XI-V 27 Jan 17:24:29 17:27:01 15° 89° (E) 17:29:46 437.345
Cubesat XI-IV 27 Jan 17:38:59 17:44:15 64° 258° (WSW) 17:49:34 437.490
CUTE-I 27 Jan 17:59:54 18:04:55 42° 262° (W) 18:09:58 437.470
PRISM 27 Jan 18:13:44 18:17:52 67° 102° (ESE) 18:22:00 437.425
SO-50 27 Jan 18:16:33 18:20:38 26° 44° (NE) 18:24:48 436.795
STRAND 1 27 Jan 18:21:55 18:26:45 40° 98° (E) 18:31:35 437.568
HO-68 27 Jan 18:27:16 18:32:47 26° 59° (ENE) 18:38:29 435.675
CANX-2 27 Jan 18:33:02 18:34:20 11° 64° (ENE) 18:35:53 2200.000
YUBILEINY 27 Jan 18:47:35 18:55:22 40° 87° (E) 19:03:21 435.215
AAUSAT CUBESAT 2 27 Jan 18:52:56 18:53:22 10° 63° (ENE) 18:54:03 437.432
CUTE 1.7 + AOD 2 27 Jan 18:55:43 18:58:37 18° 67° (ENE) 19:01:39 437.475
CUBESAT XI-V 27 Jan 19:00:19 19:04:55 57° 286° (WNW) 19:09:31 437.345
BRITE-PL 27 Jan 19:05:31 19:10:04 37° 69° (ENE) 19:15:01 437.365/2234.400
GOMX 1 27 Jan 19:10:30 19:14:50 30° 68° (ENE) 19:19:28 467.674
SEEDS 27 Jan 19:27:53 19:31:42 33° 71° (ENE) 19:35:34 437.485
DOVE 4 27 Jan 19:31:04 19:35:32 34° 69° (ENE) 19:40:16 437.250
CINEMA 3 27 Jan 19:32:24 19:35:58 21° 66° (ENE) 19:39:45 145.822/145.860
DX 1 27 Jan 19:44:47 19:46:40 13° 63° (ENE) 19:48:44 434.975-435.025
FUNcube-1 27 Jan 19:50:00 19:51:43 12° 63° (ENE) 19:53:39 145.935
PRISM 27 Jan 19:51:29 19:52:55 11° 297° (WNW) 19:54:10 437.425
COMPASS 1 27 Jan 19:56:39 20:00:49 59° 74° (ENE) 20:05:00 437.405
SO-50 27 Jan 19:56:42 20:01:28 49° 242° (WSW) 20:06:11 436.795
STRAND 1 27 Jan 20:01:31 20:05:47 26° 294° (WNW) 20:09:55 437.568
UWE-3 27 Jan 20:03:52 20:07:16 21° 66° (ENE) 20:10:49 435.000/436.395/437.385
CANX-2 27 Jan 20:05:30 20:09:48 71° 259° (WSW) 20:14:06 2200.000
HO-68 27 Jan 20:12:54 20:20:01 67° 257° (WSW) 20:27:09 435.675
AAUSAT CUBESAT 2 27 Jan 20:24:17 20:28:30 77° 258° (WSW) 20:32:44 437.432
Oscar 11 27 Jan 20:25:05 20:29:19 52° 74° (ENE) 20:33:34 145.826/435.025
VELOX 1 27 Jan 20:29:31 20:31:51 15° 64° (ENE) 20:34:21 145.980
DELFI C3 27 Jan 20:29:47 20:33:41 46° 73° (ENE) 20:37:38 145.870
CUTE 1.7 + AOD 2 27 Jan 20:30:14 20:34:19 41° 262° (W) 20:38:23 437.475
YUBILEINY 27 Jan 20:43:55 20:52:10 45° 287° (WNW) 21:00:23 435.215
BRITE-PL 27 Jan 20:44:26 20:48:42 27° 268° (W) 20:53:11 437.365/2234.400
GOMX 1 27 Jan 20:48:17 20:52:52 34° 266° (W) 20:57:40 467.674
CUBEBUG 2 27 Jan 20:54:59 20:59:43 78° 76° (ENE) 21:04:33 437.445
UKube-1 27 Jan 20:59:22 21:03:41 76° 75° (ENE) 21:08:02 .
SEEDS 27 Jan 21:04:21 21:07:39 21° 267° (W) 21:10:51 437.485
CINEMA 3 27 Jan 21:08:07 21:12:51 48° 262° (W) 21:17:44 145.822/145.860
DOVE 4 27 Jan 21:08:57 21:13:20 30° 267° (W) 21:17:51 437.250
ZACube-1 27 Jan 21:10:20 21:14:56 80° 76° (ENE) 21:19:34 437.345
ISS 27 Jan 21:14:33 21:16:35 16° 132° (SE) 21:18:42 145.825
DX 1 27 Jan 21:18:08 21:22:27 65° 258° (WSW) 21:26:48 434.975-435.025
50 SAT 27 Jan 21:19:31 21:23:23 40° 72° (ENE) 21:27:18 437.505
FUNcube-1 27 Jan 21:22:55 21:27:30 77° 259° (WSW) 21:32:08 145.935
HUMSAT D 27 Jan 21:27:00 21:31:19 67° 75° (ENE) 21:35:40 437.325/437.525
AIST 1 27 Jan 21:31:38 21:34:53 21° 71° (ENE) 21:38:16
ESTCUBE 1 27 Jan 21:32:27 21:36:15 28° 69° (ENE) 21:40:07 437.505/2401.250
ANTELSAT 27 Jan 21:33:51 21:36:39 17° 90° (E) 21:39:35 437.575/2403.000
AISAT 27 Jan 21:34:22 21:38:46 69° 74° (ENE) 21:43:15 437.250
COMPASS 1 27 Jan 21:35:17 21:37:00 12° 272° (W) 21:38:28 437.405
UWE-3 27 Jan 21:39:06 21:43:33 43° 262° (W) 21:48:03 435.000/436.395/437.385
DUCHIFAT 1 27 Jan 21:40:21 21:41:12 11° 88° (E) 21:42:20 145.980
TIGRISAT 27 Jan 21:42:17 21:45:33 20° 92° (E) 21:48:52 435.000
Oscar 11 27 Jan 22:03:29 22:05:54 14° 271° (W) 22:08:05 145.826/435.025
VELOX 1 27 Jan 22:03:39 22:08:00 58° 259° (W) 22:12:25 145.980
DELFI C3 27 Jan 22:06:59 22:09:15 14° 270° (W) 22:11:20 145.870
SPROUT 27 Jan 22:11:02 22:13:42 17° 66° (ENE) 22:16:32 437.525
NANOSAT C BR1 27 Jan 22:12:17 22:15:51 25° 94° (E) 22:19:27 145.865
CUBEBUG 1 27 Jan 22:17:07 22:21:27 78° 77° (ENE) 22:25:51 437.445
QB50P2 27 Jan 22:25:20 22:29:19 36° 97° (E) 22:33:17 145.880/145.840
UNISAT 6 27 Jan 22:33:27 22:37:57 75° 102° (ESE) 22:42:19 437.425
QB50P1 27 Jan 22:35:09 22:39:18 45° 99° (E) 22:43:27 145.935-145.965
CUBEBUG 2 27 Jan 22:35:39 22:37:07 11° 274° (W) 22:38:16 437.445
POLYITAN 1 27 Jan 22:48:41 22:53:01 67° 101° (E) 22:57:18 437.675
ISS 27 Jan 22:49:33 22:52:48 61° 327° (NNW) 22:56:05 145.825
TISAT 1 27 Jan 22:52:23 22:56:24 44° 72° (ENE) 23:00:29 437.305
BUGSAT 1 27 Jan 22:55:35 22:59:50 60° 101° (E) 23:04:05 437.445
50 SAT 27 Jan 22:56:00 22:58:45 16° 269° (W) 23:01:20 437.505
HUMSAT D 27 Jan 23:06:22 23:07:40 11° 273° (W) 23:08:43 437.325/437.525
AIST 1 27 Jan 23:08:46 23:12:41 33° 269° (W) 23:16:33
ESTCUBE 1 27 Jan 23:09:15 23:13:07 27° 265° (W) 23:16:56 437.505/2401.250
ANTELSAT 27 Jan 23:09:30 23:13:48 44° 288° (WNW) 23:17:56 437.575/2403.000
POPSAT HIP 1 27 Jan 23:09:39 23:13:59 73° 285° (WNW) 23:18:15 437.405
DUCHIFAT 1 27 Jan 23:13:19 23:17:37 67° 285° (WNW) 23:21:52 145.980
AISAT 27 Jan 23:14:37 23:16:00 11° 273° (W) 23:17:05 437.250
TIGRISAT 27 Jan 23:18:21 23:22:31 37° 289° (WNW) 23:26:31 435.000
SPROUT 27 Jan 23:45:20 23:49:29 46° 261° (W) 23:53:41 437.525
NANOSAT C BR1 27 Jan 23:48:00 23:51:44 28° 291° (WNW) 23:55:23 145.865
QB50P2 28 Jan 00:01:46 00:05:02 21° 293° (WNW) 00:08:12 145.880/145.840
SWISSCUBE 28 Jan 00:07:55 00:12:30 49° 72° (ENE) 00:17:06 437.505
QB50P1 28 Jan 00:12:03 00:14:53 17° 294° (WNW) 00:17:35 145.935-145.965
UNISAT 6 28 Jan 00:12:34 00:14:10 12° 298° (WNW) 00:15:33 437.425
BEESAT 28 Jan 00:23:53 00:28:35 66° 75° (ENE) 00:33:21 436.000
POLYITAN 1 28 Jan 00:26:36 00:28:28 12° 297° (WNW) 00:30:09 437.675
ITUPSAT 1 28 Jan 00:26:44 00:31:28 70° 74° (ENE) 00:36:14 437.325
ISS 28 Jan 00:27:29 00:29:50 18° 347° (NNW) 00:32:11 145.825
TISAT 1 28 Jan 00:29:50 00:32:31 16° 269° (W) 00:35:04 437.305
BUGSAT 1 28 Jan 00:32:45 00:34:54 13° 296° (WNW) 00:36:52 437.445
Oscar 19 28 Jan 00:32:58 00:37:00 23° 93° (E) 00:41:07 437.125/150
ITAMSAT 1 28 Jan 00:48:13 00:48:57 10° 86° (E) 00:50:04 435.822/435.867
GONETS M04 28 Jan 00:49:13 00:57:35 53° 91° (E) 01:06:00
AUBIESAT-1 28 Jan 01:00:48 01:02:44 14° 62° (ENE) 01:04:46 437.475
STARS 28 Jan 01:08:05 01:11:41 25° 68° (ENE) 01:15:23 437.465
KKS-1 28 Jan 01:10:20 01:14:29 39° 71° (ENE) 01:18:42 437.445
BEESAT 3 28 Jan 01:12:13 01:13:38 12° 110° (ESE) 01:15:17 437.485
O/OREOS (USA 219) 28 Jan 01:23:02 01:27:07 31° 59° (ENE) 01:31:15 437.305
Gurwin Techsat 1B 28 Jan 01:33:31 01:37:29 22° 92° (E) 01:41:34 435.225
SWISSCUBE 28 Jan 01:47:27 01:50:42 17° 269° (W) 01:53:47 437.505
M-CUBED/EXP-1 PRIME 28 Jan 01:58:50 02:02:56 70° 71° (ENE) 02:06:42 437.505
BEESAT 28 Jan 02:04:43 02:07:01 13° 272° (W) 02:09:03 436.000
ISS 28 Jan 02:05:14 02:07:18 15° 7° (N) 02:09:22 145.825
ITUPSAT 1 28 Jan 02:07:53 02:09:58 12° 272° (W) 02:11:48 437.325
Oscar 19 28 Jan 02:11:42 02:16:34 42° 290° (WNW) 02:21:21 437.125/150
AIST 2 28 Jan 02:20:22 02:23:45 24° 113° (ESE) 02:27:16 435.215
ITAMSAT 1 28 Jan 02:24:03 02:29:18 90° 64° (ENE) 02:34:34 435.822/435.867
BEESAT 2 28 Jan 02:31:30 02:35:36 76° 121° (ESE) 02:39:48 435.950
AUBIESAT-1 28 Jan 02:33:28 02:37:26 49° 255° (WSW) 02:41:07 437.475
AO-7 28 Jan 02:34:21 02:39:08 17° 87° (E) 02:44:24 29.400- 29.500
DANDE 28 Jan 02:37:11 02:41:52 17° 80° (E) 02:47:14 436.750
MOZHAYETS 4 28 Jan 02:40:26 02:42:57 15° 64° (ENE) 02:45:39
STARS 28 Jan 02:44:06 02:48:04 31° 264° (W) 02:52:02 437.465
GONETS M04 28 Jan 02:46:58 02:54:50 35° 291° (WNW) 03:02:32
BEESAT 3 28 Jan 02:47:13 02:51:18 65° 304° (NW) 02:55:27 437.485
KKS-1 28 Jan 02:48:00 02:51:20 20° 268° (W) 02:54:34 437.445
HORYU 2 28 Jan 02:50:38 02:54:42 35° 97° (E) 02:58:46 437.375
PCSat 28 Jan 02:58:12 03:00:08 12° 104° (ESE) 03:02:23 145.827
O/OREOS (USA 219) 28 Jan 03:02:35 03:06:28 27° 256° (WSW) 03:10:16 437.305
CUSAT 1 28 Jan 03:11:11 03:18:14 35° 88° (E) 03:25:43 437.405
Gurwin Techsat 1B 28 Jan 03:12:39 03:17:46 48° 289° (WNW) 03:22:51 435.225
ISS 28 Jan 03:41:25 03:44:31 36° 27° (NNE) 03:47:37 145.825
JAS-2 28 Jan 03:42:59 03:47:29 24° 94° (E) 03:52:33 435.910
RS-15 28 Jan 03:53:02 04:02:31 38° 109° (ESE) 04:12:17 29.354- 29.394
AIST 2 28 Jan 03:58:17 04:02:14 35° 310° (NW) 04:06:13 435.215
ITAMSAT 1 28 Jan 04:05:49 04:08:09 13° 300° (WNW) 04:10:14 435.822/435.867
BEESAT 2 28 Jan 04:11:57 04:14:23 15° 321° (NW) 04:16:45 435.950
MOZHAYETS 4 28 Jan 04:15:15 04:19:47 59° 260° (W) 04:24:20
DANDE 28 Jan 04:16:06 04:24:11 79° 97° (E) 04:32:55 436.750
AO-7 28 Jan 04:24:51 04:33:16 86° 107° (ESE) 04:41:35 29.400- 29.500
HORYU 2 28 Jan 04:27:42 04:31:13 22° 293° (WNW) 04:34:37 437.375
CUBESAT XI-V 28 Jan 04:28:45 04:31:22 16° 64° (ENE) 04:34:10 437.345
BEESAT 3 28 Jan 04:29:38 04:30:20 10° 325° (NW) 04:30:54 437.485
PCSat 28 Jan 04:37:27 04:42:53 88° 298° (WNW) 04:48:22 145.827
CUSAT 1 28 Jan 04:53:00 05:01:01 57° 286° (WNW) 05:09:17 437.405
YUBILEINY 28 Jan 04:57:41 05:03:33 20° 60° (ENE) 05:09:51 435.215
PRISM 28 Jan 05:04:31 05:08:29 50° 73° (ENE) 05:12:30 437.425
ISS 28 Jan 05:18:02 05:20:59 30° 224° (SW) 05:23:55 145.825
JAS-2 28 Jan 05:27:28 05:32:50 49° 288° (WNW) 05:38:47 435.910
STRAND 1 28 Jan 05:37:58 05:42:57 59° 73° (ENE) 05:47:59 437.568
Cubesat XI-IV 28 Jan 05:56:03 06:01:17 51° 99° (E) 06:06:32 437.490
DANDE 28 Jan 06:01:49 06:08:41 26° 298° (WNW) 06:15:31 436.750
RS-15 28 Jan 06:03:34 06:14:23 63° 310° (NW) 06:25:21 29.354- 29.394
CUBESAT XI-V 28 Jan 06:03:54 06:08:24 57° 260° (W) 06:12:59 437.345
CUTE-I 28 Jan 06:16:21 06:21:46 77° 103° (ESE) 06:27:09 437.470
AO-7 28 Jan 06:18:57 06:25:12 23° 307° (NW) 06:31:08 29.400- 29.500
PCSat 28 Jan 06:23:41 06:27:11 17° 320° (NW) 06:30:32 145.827
CUSAT 1 28 Jan 06:42:19 06:46:08 13° 307° (NW) 06:49:23 437.405
PRISM 28 Jan 06:42:19 06:44:23 13° 270° (W) 06:46:15 437.425
YUBILEINY 28 Jan 06:52:58 07:01:49 89° 260° (W) 07:10:38 435.215
BRITE-PL 28 Jan 07:11:45 07:14:28 14° 85° (E) 07:17:28 437.365/2234.400
STRAND 1 28 Jan 07:19:20 07:22:38 17° 270° (W) 07:25:43 437.568
Cubesat XI-IV 28 Jan 07:36:57 07:41:06 22° 296° (WNW) 07:45:05 437.490
HO-68 28 Jan 07:41:12 07:46:38 24° 91° (E) 07:52:18 435.675
VERMONT LUNAR 28 Jan 07:42:09 07:42:46 10° 146° (SSE) 07:43:30 437.305
CANX-2 28 Jan 07:51:47 07:54:47 19° 92° (E) 07:57:54 2200.000
CUTE-I 28 Jan 07:58:07 08:01:17 15° 299° (WNW) 08:04:12 437.470
AAUSAT CUBESAT 2 28 Jan 08:08:46 08:11:21 16° 91° (E) 08:14:04 437.432
CUTE 1.7 + AOD 2 28 Jan 08:15:32 08:19:20 32° 96° (E) 08:23:08 437.475
RS-15 28 Jan 08:20:53 08:29:38 25° 340° (NNW) 08:38:22 29.354- 29.394
PHONESAT 2.4 28 Jan 08:32:21 08:34:23 15° 149° (SSE) 08:36:30 2401.200-2431.200
ANTELSAT 28 Jan 08:33:17 08:36:24 18° 65° (ENE) 08:39:39 437.575/2403.000
TIGRISAT 28 Jan 08:41:21 08:44:48 21° 67° (ENE) 08:48:23 435.000
SEEDS 28 Jan 08:47:38 08:51:49 64° 101° (ESE) 08:55:57 437.485
CUBEBUG 2 28 Jan 08:47:47 08:50:37 17° 89° (E) 08:53:35 437.445
BRITE-PL 28 Jan 08:48:02 08:53:46 81° 285° (WNW) 08:59:16 437.365/2234.400
UKube-1 28 Jan 08:48:57 08:50:43 12° 89° (E) 08:52:43 .
GOMX 1 28 Jan 08:49:37 08:55:06 77° 100° (E) 09:00:20 467.674
YUBILEINY 28 Jan 08:52:03 08:57:33 18° 281° (W) 09:02:32 435.215
ZACube-1 28 Jan 09:00:45 09:03:17 15° 89° (E) 09:05:58 437.345
CINEMA 3 28 Jan 09:03:23 09:08:01 43° 97° (E) 09:12:28 145.822/145.860
NANOSAT C BR1 28 Jan 09:05:49 09:08:58 21° 67° (ENE) 09:12:14 145.865
DX 1 28 Jan 09:07:06 09:10:25 21° 93° (E) 09:13:50 434.975-435.025
DOVE 4 28 Jan 09:07:29 09:12:46 83° 102° (ESE) 09:17:47 437.250
FUNcube-1 28 Jan 09:12:34 09:15:50 20° 92° (E) 09:19:07 145.935
HUMSAT D 28 Jan 09:14:12 09:15:06 11° 87° (E) 09:16:15 437.325/437.525
COMPASS 1 28 Jan 09:15:55 09:20:06 73° 284° (WNW) 09:24:13 437.405
VERMONT LUNAR 28 Jan 09:17:04 09:20:20 38° 161° (SSE) 09:23:38 437.305
QB50P2 28 Jan 09:18:51 09:22:32 29° 69° (ENE) 09:26:17 145.880/145.840
CANX-2 28 Jan 09:27:00 09:30:54 35° 289° (WNW) 09:34:44 2200.000
AISAT 28 Jan 09:27:01 09:29:08 13° 89° (E) 09:31:30 437.250
HO-68 28 Jan 09:27:52 09:34:58 65° 290° (WNW) 09:42:01 435.675
QB50P1 28 Jan 09:28:21 09:32:15 35° 71° (ENE) 09:36:12 145.935-145.965
UWE-3 28 Jan 09:29:19 09:33:32 38° 96° (E) 09:37:39 435.000/436.395/437.385
BEESAT 3 28 Jan 09:30:15 09:31:50 12° 37° (NE) 09:33:33 437.485
UNISAT 6 28 Jan 09:32:12 09:36:53 69° 75° (ENE) 09:41:35 437.425
POLYITAN 1 28 Jan 09:42:02 09:46:11 51° 73° (ENE) 09:50:26 437.675
AAUSAT CUBESAT 2 28 Jan 09:43:21 09:47:16 40° 288° (WNW) 09:51:08 437.432
DELFI C3 28 Jan 09:44:51 09:48:55 81° 102° (ESE) 09:52:58 145.870
BUGSAT 1 28 Jan 09:46:09 09:50:00 42° 72° (ENE) 09:53:57 437.445
Oscar 11 28 Jan 09:48:17 09:52:37 77° 284° (WNW) 09:56:54 145.826/435.025
CUTE 1.7 + AOD 2 28 Jan 09:51:50 09:55:08 22° 292° (WNW) 09:58:20 437.475
VELOX 1 28 Jan 09:54:38 09:58:22 26° 94° (E) 10:02:11 145.980
POPSAT HIP 1 28 Jan 10:02:34 10:06:51 86° 71° (ENE) 10:11:11 437.405
AIST 1 28 Jan 10:03:39 10:05:04 12° 86° (E) 10:06:44
DUCHIFAT 1 28 Jan 10:05:55 10:10:11 88° 257° (WSW) 10:14:30 145.980
CUBEBUG 1 28 Jan 10:07:27 10:09:52 15° 90° (E) 10:12:28 437.445
ANTELSAT 28 Jan 10:08:15 10:12:51 51° 261° (W) 10:17:28 437.575/2403.000
PHONESAT 2.4 28 Jan 10:08:59 10:12:29 47° 164° (SSE) 10:15:59 2401.200-2431.200
SO-50 28 Jan 10:11:15 10:15:40 53° 118° (ESE) 10:20:17 436.795
TIGRISAT 28 Jan 10:16:50 10:21:19 42° 262° (W) 10:25:48 435.000
UKube-1 28 Jan 10:23:02 10:27:21 59° 286° (WNW) 10:31:38 .
CUBEBUG 2 28 Jan 10:23:15 10:27:42 47° 288° (WNW) 10:31:58 437.445
SEEDS 28 Jan 10:25:28 10:27:11 12° 296° (WNW) 10:28:41 437.485
BRITE-PL 28 Jan 10:28:54 10:31:26 13° 301° (WNW) 10:33:39 437.365/2234.400
GOMX 1 28 Jan 10:29:20 10:32:34 16° 298° (WNW) 10:35:31 467.674
50 SAT 28 Jan 10:33:41 10:37:45 67° 101° (E) 10:41:44 437.505
ZACube-1 28 Jan 10:35:45 10:40:03 48° 287° (WNW) 10:44:13 437.345
RS-15 28 Jan 10:38:44 10:47:07 24° 15° (NNE) 10:55:54 29.354- 29.394
NANOSAT C BR1 28 Jan 10:40:43 10:44:39 35° 263° (W) 10:48:36 145.865
CINEMA 3 28 Jan 10:41:13 10:44:57 22° 294° (WNW) 10:48:27 145.822/145.860
AIST 2 28 Jan 10:41:48 10:45:03 21° 43° (NE) 10:48:19 435.215
DX 1 28 Jan 10:42:46 10:46:48 35° 290° (WNW) 10:50:48 434.975-435.025
DOVE 4 28 Jan 10:47:12 10:49:50 14° 299° (WNW) 10:52:10 437.250
HUMSAT D 28 Jan 10:47:13 10:51:27 64° 286° (WNW) 10:55:35 437.325/437.525
FUNcube-1 28 Jan 10:48:15 10:52:21 36° 289° (WNW) 10:56:18 145.935
BEESAT 2 28 Jan 10:51:19 10:55:24 49° 53° (NE) 10:59:26 435.950
VERMONT LUNAR 28 Jan 10:54:47 10:58:17 74° 178° (S) 11:01:48 437.305
QB50P2 28 Jan 10:54:53 10:58:27 25° 266° (W) 11:02:00 145.880/145.840
GONETS M04 28 Jan 10:59:35 11:06:27 26° 65° (ENE) 11:13:35
ESTCUBE 1 28 Jan 11:01:01 11:05:30 60° 100° (E) 11:10:00 437.505/2401.250
AISAT 28 Jan 11:01:46 11:06:14 58° 287° (WNW) 11:10:40 437.250
QB50P1 28 Jan 11:05:05 11:08:17 20° 268° (W) 11:11:25 145.935-145.965
UWE-3 28 Jan 11:06:25 11:09:52 21° 293° (WNW) 11:13:07 435.000/436.395/437.385
BEESAT 3 28 Jan 11:06:33 11:10:44 81° 57° (ENE) 11:14:50 437.485
UNISAT 6 28 Jan 11:12:08 11:14:15 12° 272° (W) 11:16:06 437.425
HO-68 28 Jan 11:18:14 11:21:31 13° 309° (NW) 11:24:25 435.675
POLYITAN 1 28 Jan 11:20:08 11:22:32 14° 271° (W) 11:24:44 437.675
BUGSAT 1 28 Jan 11:23:12 11:25:47 16° 270° (W) 11:28:14 437.445
VELOX 1 28 Jan 11:31:02 11:34:59 30° 291° (WNW) 11:38:53 145.980
SPROUT 28 Jan 11:32:09 11:35:58 29° 95° (E) 11:39:47 437.525
AIST 1 28 Jan 11:38:07 11:42:18 55° 281° (W) 11:46:29
CUBEBUG 1 28 Jan 11:42:17 11:46:37 52° 287° (WNW) 11:50:57 437.445
PCSat 28 Jan 11:43:18 11:46:16 15° 38° (NE) 11:49:24 145.827
PHONESAT 2.4 28 Jan 11:47:18 11:50:56 76° 181° (S) 11:54:35 2401.200-2431.200
Oscar 19 28 Jan 11:49:48 11:54:28 35° 69° (ENE) 11:59:12 437.125/150
SO-50 28 Jan 11:52:54 11:56:35 22° 318° (NW) 12:00:17 436.795
ITAMSAT 1 28 Jan 12:05:02 12:08:26 19° 63° (ENE) 12:12:01 435.822/435.867
SWISSCUBE 28 Jan 12:10:08 12:12:00 12° 88° (E) 12:14:09 437.505
50 SAT 28 Jan 12:11:14 12:12:22 11° 297° (WNW) 12:13:19 437.505
TISAT 1 28 Jan 12:12:34 12:16:55 81° 105° (ESE) 12:21:11 437.305
AIST 2 28 Jan 12:19:48 12:23:57 48° 242° (WSW) 12:28:00 435.215
BEESAT 28 Jan 12:25:15 12:28:13 17° 90° (E) 12:31:23 436.000
ITUPSAT 1 28 Jan 12:28:21 12:31:29 18° 91° (E) 12:34:48 437.325
BEESAT 2 28 Jan 12:30:38 12:33:16 16° 249° (WSW) 12:35:44 435.950
VERMONT LUNAR 28 Jan 12:32:52 12:36:19 53° 193° (SSW) 12:39:46 437.305
ESTCUBE 1 28 Jan 12:39:24 12:41:59 15° 296° (WNW) 12:44:22 437.505/2401.250
RS-15 28 Jan 12:51:59 13:02:58 53° 46° (NE) 13:14:29 29.354- 29.394
Gurwin Techsat 1B 28 Jan 12:54:37 12:59:21 35° 69° (ENE) 13:04:10 435.225
GONETS M04 28 Jan 12:55:33 13:04:11 69° 266° (W) 13:12:45
SPROUT 28 Jan 13:08:22 13:11:59 25° 292° (WNW) 13:15:30 437.525
DANDE 28 Jan 13:21:58 13:23:26 11° 49° (NE) 13:25:14 436.750
PCSat 28 Jan 13:25:14 13:30:42 77° 60° (ENE) 13:36:07 145.827
PHONESAT 2.4 28 Jan 13:25:52 13:29:22 45° 197° (SSW) 13:32:53 2401.200-2431.200
Oscar 19 28 Jan 13:29:22 13:33:53 29° 265° (W) 13:38:20 437.125/150
AO-7 28 Jan 13:33:18 13:39:55 28° 56° (NE) 13:46:45 29.400- 29.500
ITAMSAT 1 28 Jan 13:42:25 13:47:31 59° 259° (W) 13:52:40 435.822/435.867
SWISSCUBE 28 Jan 13:45:42 13:50:28 70° 286° (WNW) 13:55:14 437.505
HORYU 2 28 Jan 13:49:19 13:53:21 34° 70° (ENE) 13:57:27 437.375
TISAT 1 28 Jan 13:51:33 13:52:10 10° 298° (WNW) 13:52:31 437.305
CUSAT 1 28 Jan 13:54:08 13:58:48 21° 59° (ENE) 14:02:49 437.405
BEESAT 28 Jan 14:01:48 14:06:27 52° 288° (WNW) 14:11:05 436.000
ITUPSAT 1 28 Jan 14:05:06 14:09:44 49° 288° (WNW) 14:14:20 437.325
VERMONT LUNAR 28 Jan 14:11:35 14:14:02 18° 209° (SSW) 14:16:27 437.305
